Location: Baix
(44.7118°N, 4.7648°E)
Time: 17:03:23
(UTC+00:00)

Landsat 5 - Pass Details

Date: 07 August 2020
Orbit: 529 x 654 km, 98.2° (Epoch: 22 September)

Event Time Altitude Azimuth Distance (km) Brightness Sun altitude
Rises 03:17:31 0° 167° (SSE) 2,671 6.6 -12.5°
Reaches altitude 10° 03:19:35 10° 168° (SSE) 1,795 5.7 -12.2°
Maximum altitude 03:23:27 83° 255° (WSW) 560 3.2 -11.6°
Drops below altitude 10° 03:27:29 10° 345° (NNW) 1,866 6.3 -11.1°
Sets 03:29:41 0° 346° (NNW) 2,788 7.2 -10.7°
